Year,Month,Day,Hour,Minute,Value (Times are PST for windspeed in km/hr)
2015,08,30,00,00,0.00
2015,08,30,00,01,0.00
2015,08,30,00,02,0.00
2015,08,30,00,03,2.50
2015,08,30,00,04,3.30
2015,08,30,00,05,1.20
2015,08,30,00,06,0.40
2015,08,30,00,07,5.10
2015,08,30,00,08,2.70
2015,08,30,00,09,4.20
2015,08,30,00,10,2.70
2015,08,30,00,11,0.10
2015,08,30,00,12,0.00
2015,08,30,00,13,0.20
2015,08,30,00,14,0.00
2015,08,30,00,15,0.00
2015,08,30,00,16,0.00
2015,08,30,00,17,0.10
2015,08,30,00,18,0.00
2015,08,30,00,19,0.00
2015,08,30,00,20,0.00
2015,08,30,00,21,0.00
2015,08,30,00,22,0.00
2015,08,30,00,23,0.20
2015,08,30,00,24,1.50
2015,08,30,00,25,5.00
2015,08,30,00,26,4.60
2015,08,30,00,27,5.10
2015,08,30,00,28,3.90
2015,08,30,00,29,6.40
2015,08,30,00,30,3.00
2015,08,30,00,31,3.90
2015,08,30,00,32,0.20
2015,08,30,00,33,2.60
2015,08,30,00,34,3.90
2015,08,30,00,35,2.20
2015,08,30,00,36,0.00
2015,08,30,00,37,1.90
2015,08,30,00,38,5.80
2015,08,30,00,39,4.30
2015,08,30,00,40,3.90
2015,08,30,00,41,3.00
2015,08,30,00,42,1.60
2015,08,30,00,43,2.30
2015,08,30,00,44,2.20
2015,08,30,00,45,3.40
2015,08,30,00,46,3.40
2015,08,30,00,47,4.20
2015,08,30,00,48,2.90
2015,08,30,00,49,1.70
2015,08,30,00,50,4.90
2015,08,30,00,51,3.90
2015,08,30,00,52,5.10
2015,08,30,00,53,4.00
2015,08,30,00,54,4.10
2015,08,30,00,55,4.40
2015,08,30,00,56,1.70
2015,08,30,00,57,3.40
2015,08,30,00,58,6.60
2015,08,30,00,59,3.10
2015,08,30,01,00,7.60
2015,08,30,01,01,4.40
2015,08,30,01,02,2.40
2015,08,30,01,03,3.90
2015,08,30,01,04,2.70
2015,08,30,01,05,3.50
2015,08,30,01,06,4.80
2015,08,30,01,07,4.70
2015,08,30,01,08,2.30
2015,08,30,01,09,4.00
2015,08,30,01,10,2.30
2015,08,30,01,11,3.90
2015,08,30,01,12,4.20
2015,08,30,01,13,4.60
2015,08,30,01,14,3.00
2015,08,30,01,15,3.40
2015,08,30,01,16,4.10
2015,08,30,01,17,3.80
2015,08,30,01,18,4.30
2015,08,30,01,19,2.80
2015,08,30,01,20,0.60
2015,08,30,01,21,1.50
2015,08,30,01,22,0.00
2015,08,30,01,23,0.00
2015,08,30,01,24,2.20
2015,08,30,01,25,1.50
2015,08,30,01,26,0.60
2015,08,30,01,27,0.00
2015,08,30,01,28,0.00
2015,08,30,01,29,0.00
2015,08,30,01,30,0.00
2015,08,30,01,31,0.10
2015,08,30,01,32,0.20
2015,08,30,01,33,0.60
2015,08,30,01,34,5.10
2015,08,30,01,35,2.10
2015,08,30,01,36,2.10
2015,08,30,01,37,0.00
2015,08,30,01,38,0.10
2015,08,30,01,39,0.10
2015,08,30,01,40,0.00
2015,08,30,01,41,0.00
2015,08,30,01,42,0.00
2015,08,30,01,43,0.00
2015,08,30,01,44,0.00
2015,08,30,01,45,0.00
2015,08,30,01,46,1.00
2015,08,30,01,47,2.00
2015,08,30,01,48,1.40
2015,08,30,01,49,0.00
2015,08,30,01,50,0.00
2015,08,30,01,51,0.00
2015,08,30,01,52,0.00
2015,08,30,01,53,0.00
2015,08,30,01,54,0.10
2015,08,30,01,55,0.00
2015,08,30,01,56,0.10
2015,08,30,01,57,0.00
2015,08,30,01,58,0.10
2015,08,30,01,59,0.00
2015,08,30,02,00,0.00
2015,08,30,02,01,0.10
2015,08,30,02,02,0.00
2015,08,30,02,03,0.00
2015,08,30,02,04,0.00
2015,08,30,02,05,0.00
2015,08,30,02,06,0.00
2015,08,30,02,07,0.00
2015,08,30,02,08,0.00
2015,08,30,02,09,0.00
2015,08,30,02,10,0.00
2015,08,30,02,11,1.80
2015,08,30,02,12,0.20
2015,08,30,02,13,3.10
2015,08,30,02,14,1.90
2015,08,30,02,15,1.80
2015,08,30,02,16,2.70
2015,08,30,02,17,0.60
2015,08,30,02,18,0.40
2015,08,30,02,19,0.00
2015,08,30,02,20,0.00
2015,08,30,02,21,0.00
2015,08,30,02,22,0.00
2015,08,30,02,23,0.00
2015,08,30,02,24,0.00
2015,08,30,02,25,0.00
2015,08,30,02,26,0.00
2015,08,30,02,27,0.00
2015,08,30,02,28,0.00
2015,08,30,02,29,0.00
2015,08,30,02,30,0.00
2015,08,30,02,31,0.10
2015,08,30,02,32,0.00
2015,08,30,02,33,2.40
2015,08,30,02,34,1.90
2015,08,30,02,35,2.40
2015,08,30,02,36,3.00
2015,08,30,02,37,3.30
2015,08,30,02,38,2.60
2015,08,30,02,39,0.60
2015,08,30,02,40,0.60
2015,08,30,02,41,1.10
2015,08,30,02,42,0.10
2015,08,30,02,43,0.10
2015,08,30,02,44,0.20
2015,08,30,02,45,1.40
2015,08,30,02,46,0.30
2015,08,30,02,47,3.00
2015,08,30,02,48,3.60
2015,08,30,02,49,4.40
2015,08,30,02,50,2.90
2015,08,30,02,51,5.10
2015,08,30,02,52,5.30
2015,08,30,02,53,4.40
2015,08,30,02,54,3.90
2015,08,30,02,55,4.30
2015,08,30,02,56,3.80
2015,08,30,02,57,7.30
2015,08,30,02,58,6.00
2015,08,30,02,59,0.60
2015,08,30,03,00,3.60
2015,08,30,03,01,3.00
2015,08,30,03,02,1.90
2015,08,30,03,03,5.40
2015,08,30,03,04,2.60
2015,08,30,03,05,3.60
2015,08,30,03,06,2.70
2015,08,30,03,07,4.10
2015,08,30,03,08,3.70
2015,08,30,03,09,3.10
2015,08,30,03,10,6.40
2015,08,30,03,11,6.70
2015,08,30,03,12,5.90
2015,08,30,03,13,4.50
2015,08,30,03,14,7.00
2015,08,30,03,15,6.20
2015,08,30,03,16,4.00
2015,08,30,03,17,5.80
2015,08,30,03,18,5.60
2015,08,30,03,19,2.60
2015,08,30,03,20,5.90
2015,08,30,03,21,6.50
2015,08,30,03,22,7.40
2015,08,30,03,23,6.90
2015,08,30,03,24,5.20
2015,08,30,03,25,4.90
2015,08,30,03,26,6.20
2015,08,30,03,27,4.40
2015,08,30,03,28,5.00
2015,08,30,03,29,5.20
2015,08,30,03,30,4.10
2015,08,30,03,31,2.70
2015,08,30,03,32,0.80
2015,08,30,03,33,3.30
2015,08,30,03,34,0.00
2015,08,30,03,35,0.70
2015,08,30,03,36,0.30
2015,08,30,03,37,3.50
2015,08,30,03,38,2.00
2015,08,30,03,39,2.80
2015,08,30,03,40,1.80
2015,08,30,03,41,1.40
2015,08,30,03,42,2.60
2015,08,30,03,43,2.30
2015,08,30,03,44,4.40
2015,08,30,03,45,2.50
2015,08,30,03,46,0.00
2015,08,30,03,47,0.00
2015,08,30,03,48,1.20
2015,08,30,03,49,0.10
2015,08,30,03,50,1.60
2015,08,30,03,51,1.40
2015,08,30,03,52,5.40
2015,08,30,03,53,3.60
2015,08,30,03,54,3.70
2015,08,30,03,55,1.30
2015,08,30,03,56,0.00
2015,08,30,03,57,0.00
2015,08,30,03,58,0.10
2015,08,30,03,59,3.00
2015,08,30,04,00,2.20
2015,08,30,04,01,3.60
2015,08,30,04,02,3.90
2015,08,30,04,03,3.50
2015,08,30,04,04,2.90
2015,08,30,04,05,0.60
2015,08,30,04,06,3.10
2015,08,30,04,07,2.30
2015,08,30,04,08,1.10
2015,08,30,04,09,3.50
2015,08,30,04,10,2.10
2015,08,30,04,11,1.10
2015,08,30,04,12,3.10
2015,08,30,04,13,5.00
2015,08,30,04,14,3.70
2015,08,30,04,15,3.50
2015,08,30,04,16,5.10
2015,08,30,04,17,3.00
2015,08,30,04,18,3.50
2015,08,30,04,19,4.40
2015,08,30,04,20,4.00
2015,08,30,04,21,2.30
2015,08,30,04,22,4.10
2015,08,30,04,23,2.50
2015,08,30,04,24,1.90
2015,08,30,04,25,3.40
2015,08,30,04,26,2.60
2015,08,30,04,27,2.30
2015,08,30,04,28,5.20
2015,08,30,04,29,5.30
2015,08,30,04,30,3.80
2015,08,30,04,31,5.40
2015,08,30,04,32,4.30
2015,08,30,04,33,6.00
2015,08,30,04,34,8.10
2015,08,30,04,35,7.60
2015,08,30,04,36,7.50
2015,08,30,04,37,6.60
2015,08,30,04,38,6.60
2015,08,30,04,39,6.00
2015,08,30,04,40,4.50
2015,08,30,04,41,3.60
2015,08,30,04,42,4.70
2015,08,30,04,43,6.50
2015,08,30,04,44,5.70
2015,08,30,04,45,6.70
2015,08,30,04,46,4.40
2015,08,30,04,47,3.60
2015,08,30,04,48,5.40
2015,08,30,04,49,1.90
2015,08,30,04,50,3.90
2015,08,30,04,51,6.30
2015,08,30,04,52,5.00
2015,08,30,04,53,3.70
2015,08,30,04,54,3.50
2015,08,30,04,55,4.60
2015,08,30,04,56,4.80
2015,08,30,04,57,4.50
2015,08,30,04,58,4.80
2015,08,30,04,59,4.50
2015,08,30,05,00,2.80
2015,08,30,05,01,3.10
2015,08,30,05,02,5.30
2015,08,30,05,03,3.10
2015,08,30,05,04,0.10
2015,08,30,05,05,1.00
2015,08,30,05,06,5.90
2015,08,30,05,07,5.00
2015,08,30,05,08,3.00
2015,08,30,05,09,2.50
2015,08,30,05,10,1.30
2015,08,30,05,11,0.10
2015,08,30,05,12,0.00
2015,08,30,05,13,1.90
2015,08,30,05,14,3.00
2015,08,30,05,15,1.40
2015,08,30,05,16,0.40
2015,08,30,05,17,0.00
2015,08,30,05,18,0.10
2015,08,30,05,19,0.50
2015,08,30,05,20,1.50
2015,08,30,05,21,2.40
2015,08,30,05,22,2.60
2015,08,30,05,23,3.30
2015,08,30,05,24,2.50
2015,08,30,05,25,0.30
2015,08,30,05,26,1.80
2015,08,30,05,27,2.50
2015,08,30,05,28,1.50
2015,08,30,05,29,3.20
2015,08,30,05,30,3.20
2015,08,30,05,31,4.20
2015,08,30,05,32,3.60
2015,08,30,05,33,4.30
2015,08,30,05,34,2.60
2015,08,30,05,35,3.10
2015,08,30,05,36,4.70
2015,08,30,05,37,3.70
2015,08,30,05,38,4.00
2015,08,30,05,39,3.20
2015,08,30,05,40,3.50
2015,08,30,05,41,1.30
2015,08,30,05,42,0.00
2015,08,30,05,43,0.30
2015,08,30,05,44,2.90
2015,08,30,05,45,0.20
2015,08,30,05,46,2.50
2015,08,30,05,47,4.70
2015,08,30,05,48,4.60
2015,08,30,05,49,4.80
2015,08,30,05,50,6.40
2015,08,30,05,51,3.70
2015,08,30,05,52,3.30
2015,08,30,05,53,3.20
2015,08,30,05,54,4.40
2015,08,30,05,55,4.00
2015,08,30,05,56,4.10
2015,08,30,05,57,6.00
2015,08,30,05,58,5.40
2015,08,30,05,59,4.30
2015,08,30,06,00,5.50
2015,08,30,06,01,4.60
2015,08,30,06,02,1.20
2015,08,30,06,03,0.00
2015,08,30,06,04,0.00
2015,08,30,06,05,0.00
2015,08,30,06,06,0.00
2015,08,30,06,07,0.00
2015,08,30,06,08,0.00
2015,08,30,06,09,0.00
2015,08,30,06,10,2.80
2015,08,30,06,11,4.40
2015,08,30,06,12,3.90
2015,08,30,06,13,3.70
2015,08,30,06,14,3.00
2015,08,30,06,15,3.80
2015,08,30,06,16,1.50
2015,08,30,06,17,0.00
2015,08,30,06,18,0.00
2015,08,30,06,19,0.00
2015,08,30,06,20,0.00
2015,08,30,06,21,0.00
2015,08,30,06,22,0.00
2015,08,30,06,23,0.00
2015,08,30,06,24,0.00
2015,08,30,06,25,0.00
2015,08,30,06,26,0.00
2015,08,30,06,27,0.00
2015,08,30,06,28,0.00
2015,08,30,06,29,0.00
2015,08,30,06,30,0.00
2015,08,30,06,31,0.00
2015,08,30,06,32,0.00
2015,08,30,06,33,0.00
2015,08,30,06,34,0.00
2015,08,30,06,35,0.00
2015,08,30,06,36,0.00
2015,08,30,06,37,0.00
2015,08,30,06,38,0.00
2015,08,30,06,39,0.00
2015,08,30,06,40,0.00
2015,08,30,06,41,0.00
2015,08,30,06,42,0.00
2015,08,30,06,43,0.00
2015,08,30,06,44,0.00
2015,08,30,06,45,0.00
2015,08,30,06,46,0.00
2015,08,30,06,47,0.00
2015,08,30,06,48,0.00
2015,08,30,06,49,0.00
2015,08,30,06,50,0.00
2015,08,30,06,51,0.00
2015,08,30,06,52,0.00
2015,08,30,06,53,0.00
2015,08,30,06,54,0.00
2015,08,30,06,55,0.00
2015,08,30,06,56,0.00
2015,08,30,06,57,0.00
2015,08,30,06,58,0.00
2015,08,30,06,59,0.00
2015,08,30,07,00,1.00
2015,08,30,07,01,0.20
2015,08,30,07,02,0.80
2015,08,30,07,03,3.00
2015,08,30,07,04,3.80
2015,08,30,07,05,3.00
2015,08,30,07,06,1.30
2015,08,30,07,07,1.60
2015,08,30,07,08,2.70
2015,08,30,07,09,2.90
2015,08,30,07,10,2.50
2015,08,30,07,11,2.30
2015,08,30,07,12,5.70
2015,08,30,07,13,5.50
2015,08,30,07,14,3.50
2015,08,30,07,15,3.90
2015,08,30,07,16,5.40
2015,08,30,07,17,4.70
2015,08,30,07,18,3.70
2015,08,30,07,19,5.60
2015,08,30,07,20,6.80
2015,08,30,07,21,5.50
2015,08,30,07,22,4.30
2015,08,30,07,23,2.70
2015,08,30,07,24,1.30
2015,08,30,07,25,0.00
2015,08,30,07,26,0.00
2015,08,30,07,27,2.80
2015,08,30,07,28,3.30
2015,08,30,07,29,0.40
2015,08,30,07,30,0.10
2015,08,30,07,31,0.20
2015,08,30,07,32,0.20
2015,08,30,07,33,1.70
2015,08,30,07,34,0.00
2015,08,30,07,35,0.00
2015,08,30,07,36,0.00
2015,08,30,07,37,0.00
2015,08,30,07,38,0.70
2015,08,30,07,39,3.70
2015,08,30,07,40,0.00
2015,08,30,07,41,0.10
2015,08,30,07,42,0.00
2015,08,30,07,43,0.00
2015,08,30,07,44,0.10
2015,08,30,07,45,3.50
2015,08,30,07,46,2.10
2015,08,30,07,47,3.10
2015,08,30,07,48,0.90
2015,08,30,07,49,0.00
2015,08,30,07,50,0.00
2015,08,30,07,51,0.00
2015,08,30,07,52,0.20
2015,08,30,07,53,2.20
2015,08,30,07,54,0.00
2015,08,30,07,55,0.00
2015,08,30,07,56,0.10
2015,08,30,07,57,0.10
2015,08,30,07,58,0.00
2015,08,30,07,59,2.60
2015,08,30,08,00,3.60
2015,08,30,08,01,5.60
2015,08,30,08,02,4.30
2015,08,30,08,03,5.00
2015,08,30,08,04,3.10
2015,08,30,08,05,2.00
2015,08,30,08,06,3.10
2015,08,30,08,07,3.40
2015,08,30,08,08,4.40
2015,08,30,08,09,3.60
2015,08,30,08,10,3.40
2015,08,30,08,11,4.00
2015,08,30,08,12,0.90
2015,08,30,08,13,2.70
2015,08,30,08,14,0.50
2015,08,30,08,15,2.10
2015,08,30,08,16,0.40
2015,08,30,08,17,3.10
2015,08,30,08,18,2.20
2015,08,30,08,19,2.90
2015,08,30,08,20,5.70
2015,08,30,08,21,1.00
2015,08,30,08,22,5.10
2015,08,30,08,23,5.50
2015,08,30,08,24,7.80
2015,08,30,08,25,7.20
2015,08,30,08,26,7.50
2015,08,30,08,27,5.20
2015,08,30,08,28,3.10
2015,08,30,08,29,8.70
2015,08,30,08,30,8.90
2015,08,30,08,31,8.80
2015,08,30,08,32,8.10
2015,08,30,08,33,9.50
2015,08,30,08,34,6.30
2015,08,30,08,35,7.80
2015,08,30,08,36,8.60
2015,08,30,08,37,7.30
2015,08,30,08,38,11.00
2015,08,30,08,39,8.30
2015,08,30,08,40,6.40
2015,08,30,08,41,10.90
2015,08,30,08,42,10.30
2015,08,30,08,43,8.00
2015,08,30,08,44,4.70
2015,08,30,08,45,7.50
2015,08,30,08,46,14.20
2015,08,30,08,47,12.60
2015,08,30,08,48,10.30
2015,08,30,08,49,12.10
2015,08,30,08,50,8.80
2015,08,30,08,51,12.30
2015,08,30,08,52,10.40
2015,08,30,08,53,9.40
2015,08,30,08,54,9.50
2015,08,30,08,55,7.90
2015,08,30,08,56,6.10
2015,08,30,08,57,9.70
2015,08,30,08,58,11.00
2015,08,30,08,59,8.70
2015,08,30,09,00,6.90
2015,08,30,09,01,6.50
2015,08,30,09,02,5.60
2015,08,30,09,03,5.60
2015,08,30,09,04,6.00
2015,08,30,09,05,7.30
2015,08,30,09,06,6.50
2015,08,30,09,07,8.50
2015,08,30,09,08,5.90
2015,08,30,09,09,5.70
2015,08,30,09,10,4.40
2015,08,30,09,11,8.20
2015,08,30,09,12,7.30
2015,08,30,09,13,7.30
2015,08,30,09,14,5.70
2015,08,30,09,15,5.80
2015,08,30,09,16,7.60
2015,08,30,09,17,6.10
2015,08,30,09,18,6.20
2015,08,30,09,19,5.30
2015,08,30,09,20,5.10
2015,08,30,09,21,5.90
2015,08,30,09,22,9.10
2015,08,30,09,23,6.00
2015,08,30,09,24,5.40
2015,08,30,09,25,6.30
2015,08,30,09,26,7.00
2015,08,30,09,27,7.10
2015,08,30,09,28,3.90
2015,08,30,09,29,6.90
2015,08,30,09,30,6.30
2015,08,30,09,31,4.70
2015,08,30,09,32,6.80
2015,08,30,09,33,7.00
2015,08,30,09,34,3.70
2015,08,30,09,35,6.20
2015,08,30,09,36,4.10
2015,08,30,09,37,3.40
2015,08,30,09,38,6.10
2015,08,30,09,39,5.40
2015,08,30,09,40,6.70
2015,08,30,09,41,5.60
2015,08,30,09,42,4.10
2015,08,30,09,43,5.30
2015,08,30,09,44,4.30
2015,08,30,09,45,4.60
2015,08,30,09,46,4.70
2015,08,30,09,47,1.90
2015,08,30,09,48,1.00
2015,08,30,09,49,2.50
2015,08,30,09,50,6.70
2015,08,30,09,51,6.30
2015,08,30,09,52,6.60
2015,08,30,09,53,5.10
2015,08,30,09,54,6.80
2015,08,30,09,55,9.30
2015,08,30,09,56,5.10
2015,08,30,09,57,5.30
2015,08,30,09,58,6.40
2015,08,30,09,59,6.00
2015,08,30,10,00,5.80
2015,08,30,10,01,4.30
2015,08,30,10,02,4.80
2015,08,30,10,03,4.50
2015,08,30,10,04,7.20
2015,08,30,10,05,5.30
2015,08,30,10,06,4.30
2015,08,30,10,07,6.40
2015,08,30,10,08,6.00
2015,08,30,10,09,8.90
2015,08,30,10,10,6.20
2015,08,30,10,11,5.30
2015,08,30,10,12,6.80
2015,08,30,10,13,6.00
2015,08,30,10,14,5.60
2015,08,30,10,15,7.30
2015,08,30,10,16,4.70
2015,08,30,10,17,7.70
2015,08,30,10,18,9.70
2015,08,30,10,19,9.20
2015,08,30,10,20,8.50
2015,08,30,10,21,7.10
2015,08,30,10,22,7.40
2015,08,30,10,23,5.20
2015,08,30,10,24,6.30
2015,08,30,10,25,5.70
2015,08,30,10,26,3.60
2015,08,30,10,27,8.40
2015,08,30,10,28,7.60
2015,08,30,10,29,8.30
2015,08,30,10,30,8.10
2015,08,30,10,31,8.30
2015,08,30,10,32,7.00
2015,08,30,10,33,6.80
2015,08,30,10,34,6.20
2015,08,30,10,35,5.80
2015,08,30,10,36,4.60
2015,08,30,10,37,5.60
2015,08,30,10,38,5.30
2015,08,30,10,39,6.20
2015,08,30,10,40,8.00
2015,08,30,10,41,5.20
2015,08,30,10,42,4.30
2015,08,30,10,43,5.30
2015,08,30,10,44,5.80
2015,08,30,10,45,8.00
2015,08,30,10,46,7.20
2015,08,30,10,47,9.00
2015,08,30,10,48,6.50
2015,08,30,10,49,5.80
2015,08,30,10,50,4.60
2015,08,30,10,51,6.10
2015,08,30,10,52,6.90
2015,08,30,10,53,10.80
2015,08,30,10,54,6.60
2015,08,30,10,55,8.60
2015,08,30,10,56,8.10
2015,08,30,10,57,5.60
2015,08,30,10,58,6.10
2015,08,30,10,59,6.60
2015,08,30,11,00,5.10
2015,08,30,11,01,6.00
2015,08,30,11,02,9.60
2015,08,30,11,03,9.70
2015,08,30,11,04,13.50
2015,08,30,11,05,11.90
2015,08,30,11,06,7.20
2015,08,30,11,07,11.80
2015,08,30,11,08,11.80
2015,08,30,11,09,11.10
2015,08,30,11,10,10.10
2015,08,30,11,11,10.30
2015,08,30,11,12,10.00
2015,08,30,11,13,11.70
2015,08,30,11,14,10.10
2015,08,30,11,15,9.90
2015,08,30,11,16,10.90
2015,08,30,11,17,7.60
2015,08,30,11,18,6.60
2015,08,30,11,19,9.50
2015,08,30,11,20,13.10
2015,08,30,11,21,14.20
2015,08,30,11,22,11.70
2015,08,30,11,23,11.90
2015,08,30,11,24,9.70
2015,08,30,11,25,13.40
2015,08,30,11,26,15.00
2015,08,30,11,27,6.60
2015,08,30,11,28,11.50
2015,08,30,11,29,11.40
2015,08,30,11,30,6.00
2015,08,30,11,31,10.40
2015,08,30,11,32,14.00
2015,08,30,11,33,14.60
2015,08,30,11,34,7.20
2015,08,30,11,35,10.70
2015,08,30,11,36,11.20
2015,08,30,11,37,11.90
2015,08,30,11,38,9.10
2015,08,30,11,39,11.50
2015,08,30,11,40,8.80
2015,08,30,11,41,7.60
2015,08,30,11,42,12.40
2015,08,30,11,43,9.30
2015,08,30,11,44,12.00
2015,08,30,11,45,12.00
2015,08,30,11,46,14.60
2015,08,30,11,47,12.10
2015,08,30,11,48,8.60
2015,08,30,11,49,10.40
2015,08,30,11,50,10.50
2015,08,30,11,51,8.20
2015,08,30,11,52,6.40
2015,08,30,11,53,9.50
2015,08,30,11,54,13.10
2015,08,30,11,55,11.80
2015,08,30,11,56,10.40
2015,08,30,11,57,10.10
2015,08,30,11,58,13.90
2015,08,30,11,59,11.40
2015,08,30,12,00,7.50
2015,08,30,12,01,8.10
2015,08,30,12,02,11.60
2015,08,30,12,03,10.90
2015,08,30,12,04,14.70
2015,08,30,12,05,13.20
2015,08,30,12,06,8.30
2015,08,30,12,07,10.40
2015,08,30,12,08,9.50
2015,08,30,12,09,11.60
2015,08,30,12,10,16.30
2015,08,30,12,11,16.30
2015,08,30,12,12,15.00
2015,08,30,12,13,11.30
2015,08,30,12,14,11.10
2015,08,30,12,15,12.70
2015,08,30,12,16,13.70
2015,08,30,12,17,11.10
2015,08,30,12,18,8.30
2015,08,30,12,19,7.80
2015,08,30,12,20,8.10
2015,08,30,12,21,12.30
2015,08,30,12,22,13.70
2015,08,30,12,23,11.50
2015,08,30,12,24,10.50
2015,08,30,12,25,8.00
2015,08,30,12,26,10.20
2015,08,30,12,27,13.00
2015,08,30,12,28,12.30
2015,08,30,12,29,13.20
2015,08,30,12,30,7.50
2015,08,30,12,31,14.20
2015,08,30,12,32,11.70
2015,08,30,12,33,9.10
2015,08,30,12,34,15.80
2015,08,30,12,35,13.40
2015,08,30,12,36,14.00
2015,08,30,12,37,9.70
2015,08,30,12,38,13.80
2015,08,30,12,39,12.10
2015,08,30,12,40,12.10
2015,08,30,12,41,12.60
2015,08,30,12,42,13.30
2015,08,30,12,43,13.90
2015,08,30,12,44,11.50
2015,08,30,12,45,8.90
2015,08,30,12,46,8.70
2015,08,30,12,47,10.50
2015,08,30,12,48,9.80
2015,08,30,12,49,11.80
2015,08,30,12,50,18.70
2015,08,30,12,51,15.10
2015,08,30,12,52,11.50
2015,08,30,12,53,11.50
2015,08,30,12,54,13.70
2015,08,30,12,55,9.70
2015,08,30,12,56,7.80
2015,08,30,12,57,10.10
2015,08,30,12,58,14.60
2015,08,30,12,59,13.90
2015,08,30,13,00,11.30
2015,08,30,13,01,13.20
2015,08,30,13,02,14.20
2015,08,30,13,03,13.90
2015,08,30,13,04,11.80
2015,08,30,13,05,9.30
2015,08,30,13,06,11.10
2015,08,30,13,07,8.20
2015,08,30,13,08,9.70
2015,08,30,13,09,10.70
2015,08,30,13,10,14.40
2015,08,30,13,11,13.00
2015,08,30,13,12,16.30
2015,08,30,13,13,13.10
2015,08,30,13,14,11.10
2015,08,30,13,15,10.30
2015,08,30,13,16,14.30
2015,08,30,13,17,14.20
2015,08,30,13,18,11.30
2015,08,30,13,19,9.20
2015,08,30,13,20,10.90
2015,08,30,13,21,8.60
2015,08,30,13,22,9.70
2015,08,30,13,23,11.80
2015,08,30,13,24,10.50
2015,08,30,13,25,10.90
2015,08,30,13,26,10.90
2015,08,30,13,27,8.40
2015,08,30,13,28,12.80
2015,08,30,13,29,6.70
2015,08,30,13,30,12.80
2015,08,30,13,31,13.30
2015,08,30,13,32,14.40
2015,08,30,13,33,9.80
2015,08,30,13,34,9.30
2015,08,30,13,35,8.00
2015,08,30,13,36,5.70
2015,08,30,13,37,7.20
2015,08,30,13,38,9.10
2015,08,30,13,39,14.20
2015,08,30,13,40,13.00
2015,08,30,13,41,11.60
2015,08,30,13,42,12.80
2015,08,30,13,43,12.60
2015,08,30,13,44,14.10
2015,08,30,13,45,10.00
2015,08,30,13,46,7.90
2015,08,30,13,47,5.60
2015,08,30,13,48,7.20
2015,08,30,13,49,10.10
2015,08,30,13,50,9.10
2015,08,30,13,51,15.20
2015,08,30,13,52,13.20
2015,08,30,13,53,13.80
2015,08,30,13,54,14.20
2015,08,30,13,55,10.50
2015,08,30,13,56,13.90
2015,08,30,13,57,15.30
2015,08,30,13,58,14.10
2015,08,30,13,59,7.80
2015,08,30,14,00,14.40
2015,08,30,14,01,12.80
2015,08,30,14,02,8.50
2015,08,30,14,03,8.40
2015,08,30,14,04,12.60
2015,08,30,14,05,13.60
2015,08,30,14,06,10.10
2015,08,30,14,07,10.90
2015,08,30,14,08,13.00
2015,08,30,14,09,14.10
2015,08,30,14,10,13.80
2015,08,30,14,11,11.40
2015,08,30,14,12,8.50
2015,08,30,14,13,10.70
2015,08,30,14,14,13.80
2015,08,30,14,15,15.40
2015,08,30,14,16,13.70
2015,08,30,14,17,11.30
2015,08,30,14,18,11.30
2015,08,30,14,19,16.70
2015,08,30,14,20,11.30
2015,08,30,14,21,12.80
2015,08,30,14,22,14.90
2015,08,30,14,23,15.70
2015,08,30,14,24,10.90
2015,08,30,14,25,9.50
2015,08,30,14,26,10.10
2015,08,30,14,27,13.40
2015,08,30,14,28,8.00
2015,08,30,14,29,14.20
2015,08,30,14,30,13.30
2015,08,30,14,31,11.30
2015,08,30,14,32,15.40
2015,08,30,14,33,14.30
2015,08,30,14,34,12.60
2015,08,30,14,35,11.30
2015,08,30,14,36,8.90
2015,08,30,14,37,7.30
2015,08,30,14,38,13.80
2015,08,30,14,39,12.70
2015,08,30,14,40,11.80
2015,08,30,14,41,13.00
2015,08,30,14,42,14.60
2015,08,30,14,43,16.90
2015,08,30,14,44,16.00
2015,08,30,14,45,12.00
2015,08,30,14,46,15.90
2015,08,30,14,47,12.30
2015,08,30,14,48,11.30
2015,08,30,14,49,8.30
2015,08,30,14,50,10.60
2015,08,30,14,51,14.70
2015,08,30,14,52,9.90
2015,08,30,14,53,12.40
2015,08,30,14,54,13.60
2015,08,30,14,55,12.50
2015,08,30,14,56,13.80
2015,08,30,14,57,12.00
2015,08,30,14,58,13.90
2015,08,30,14,59,9.30
2015,08,30,15,00,9.70
2015,08,30,15,01,7.40
2015,08,30,15,02,8.90
2015,08,30,15,03,9.70
2015,08,30,15,04,12.10
2015,08,30,15,05,12.40
2015,08,30,15,06,12.10
2015,08,30,15,07,15.40
2015,08,30,15,08,10.00
2015,08,30,15,09,10.90
2015,08,30,15,10,11.10
2015,08,30,15,11,14.40
2015,08,30,15,12,17.80
2015,08,30,15,13,14.00
2015,08,30,15,14,12.50
2015,08,30,15,15,8.90
2015,08,30,15,16,12.00
2015,08,30,15,17,10.50
2015,08,30,15,18,12.90
2015,08,30,15,19,10.50
2015,08,30,15,20,9.10
2015,08,30,15,21,8.90
2015,08,30,15,22,6.80
2015,08,30,15,23,9.80
2015,08,30,15,24,11.20
2015,08,30,15,25,10.10
2015,08,30,15,26,7.60
2015,08,30,15,27,5.20
2015,08,30,15,28,7.70
2015,08,30,15,29,7.60
2015,08,30,15,30,9.90
2015,08,30,15,31,9.00
2015,08,30,15,32,6.00
2015,08,30,15,33,9.10
2015,08,30,15,34,13.80
2015,08,30,15,35,15.00
2015,08,30,15,36,12.00
2015,08,30,15,37,11.10
2015,08,30,15,38,10.50
2015,08,30,15,39,9.30
2015,08,30,15,40,7.70
2015,08,30,15,41,13.80
2015,08,30,15,42,9.40
2015,08,30,15,43,11.90
2015,08,30,15,44,11.40
2015,08,30,15,45,10.80
2015,08,30,15,46,8.70
2015,08,30,15,47,8.40
2015,08,30,15,48,8.50
2015,08,30,15,49,9.30
2015,08,30,15,50,8.80
2015,08,30,15,51,13.90
2015,08,30,15,52,9.70
2015,08,30,15,53,12.90
2015,08,30,15,54,10.50
2015,08,30,15,55,9.80
2015,08,30,15,56,8.90
2015,08,30,15,57,10.40
2015,08,30,15,58,11.30
2015,08,30,15,59,11.00
2015,08,30,16,00,13.30
2015,08,30,16,01,8.80
2015,08,30,16,02,10.80
2015,08,30,16,03,11.90
2015,08,30,16,04,10.60
2015,08,30,16,05,10.00
2015,08,30,16,06,8.90
2015,08,30,16,07,8.70
2015,08,30,16,08,6.90
2015,08,30,16,09,6.40
2015,08,30,16,10,8.00
2015,08,30,16,11,8.90
2015,08,30,16,12,9.60
2015,08,30,16,13,14.30
2015,08,30,16,14,10.10
2015,08,30,16,15,8.30
2015,08,30,16,16,8.00
2015,08,30,16,17,9.50
2015,08,30,16,18,11.70
2015,08,30,16,19,10.00
2015,08,30,16,20,10.30
2015,08,30,16,21,12.10
2015,08,30,16,22,11.70
2015,08,30,16,23,9.10
2015,08,30,16,24,7.20
2015,08,30,16,25,6.40
2015,08,30,16,26,7.80
2015,08,30,16,27,10.40
2015,08,30,16,28,7.20
2015,08,30,16,29,6.00
2015,08,30,16,30,10.30
2015,08,30,16,31,12.50
2015,08,30,16,32,10.20
2015,08,30,16,33,8.80
2015,08,30,16,34,7.70
2015,08,30,16,35,10.50
2015,08,30,16,36,19.50
2015,08,30,16,37,8.10
2015,08,30,16,38,13.00
2015,08,30,16,39,13.70
2015,08,30,16,40,5.90
2015,08,30,16,41,13.00
2015,08,30,16,42,13.40
2015,08,30,16,43,14.40
2015,08,30,16,44,5.00
2015,08,30,16,45,7.60
2015,08,30,16,46,4.10
2015,08,30,16,47,7.90
2015,08,30,16,48,4.70
2015,08,30,16,49,7.80
2015,08,30,16,50,9.50
2015,08,30,16,51,8.20
2015,08,30,16,52,3.90
2015,08,30,16,53,9.00
2015,08,30,16,54,5.70
2015,08,30,16,55,12.20
2015,08,30,16,56,7.90
2015,08,30,16,57,6.00
2015,08,30,16,58,7.40
2015,08,30,16,59,7.10
2015,08,30,17,00,7.00
2015,08,30,17,01,9.70
2015,08,30,17,02,9.70
2015,08,30,17,03,9.30
2015,08,30,17,04,9.70
2015,08,30,17,05,5.40
2015,08,30,17,06,5.50
2015,08,30,17,07,7.00
2015,08,30,17,08,6.30
2015,08,30,17,09,8.10
2015,08,30,17,10,6.20
2015,08,30,17,11,9.30
2015,08,30,17,12,7.30
2015,08,30,17,13,7.70
2015,08,30,17,14,7.10
2015,08,30,17,15,6.80
2015,08,30,17,16,4.70
2015,08,30,17,17,8.80
2015,08,30,17,18,12.10
2015,08,30,17,19,10.00
2015,08,30,17,20,8.90
2015,08,30,17,21,7.00
2015,08,30,17,22,8.10
2015,08,30,17,23,7.00
2015,08,30,17,24,7.60
2015,08,30,17,25,3.60
2015,08,30,17,26,4.40
2015,08,30,17,27,6.70
2015,08,30,17,28,9.40
2015,08,30,17,29,11.30
2015,08,30,17,30,6.80
2015,08,30,17,31,2.80
2015,08,30,17,32,8.10
2015,08,30,17,33,10.00
2015,08,30,17,34,10.10
2015,08,30,17,35,5.80
2015,08,30,17,36,5.30
2015,08,30,17,37,5.60
2015,08,30,17,38,8.60
2015,08,30,17,39,11.30
2015,08,30,17,40,8.90
2015,08,30,17,41,7.90
2015,08,30,17,42,10.30
2015,08,30,17,43,7.00
2015,08,30,17,44,8.40
2015,08,30,17,45,7.40
2015,08,30,17,46,7.60
2015,08,30,17,47,10.50
2015,08,30,17,48,9.10
2015,08,30,17,49,11.60
2015,08,30,17,50,7.90
2015,08,30,17,51,6.90
2015,08,30,17,52,5.30
2015,08,30,17,53,10.50
2015,08,30,17,54,7.10
2015,08,30,17,55,8.90